Weather History for Cheyenne, WY

Change the Weather History Date:

Friday, March 1, 2013

  Actual Average Record
Temperature  
Mean Temperature 33 °F 32 °F  
Max Temperature 43 °F 44 °F 67 °F (2008)
Min Temperature 22 °F 21 °F -15 °F (1922)
Degree Days  
Heating Degree Days 32 33  
Month to date heating degree days 32 33  
Since 1 July heating degree days 4965 5052  
Cooling Degree Days 0 0  
Month to date cooling degree days 0 0  
Year to date cooling degree days 0 0  
Moisture  
Dew Point 20 °F    
Average Humidity 52    
Maximum Humidity 65    
Minimum Humidity 39    
Precipitation  
Precipitation 0.00 in 0.02 in 0.42 in (1921)
Month to date precipitation 0.00 0.02  
Year to date precipitation 0.88 0.82  
Snow  
Snow 0.00 in 0.30 in 4.40 in (1906)
Month to date snowfall 0.0 0.3  
Since 1 July snowfall 38.4 36.8  
Snow Depth T in    
Sea Level Pressure  
Sea Level Pressure 30.30 in    
Wind  
Wind Speed 17 mph (NW)    
Max Wind Speed 33 mph    
Max Gust Speed 46 mph    
Visibility 10 miles    
Events      
T = Trace of Precipitation, MM = Missing Value Source: NWS Daily Summary

Daily Weather History Graph

Daily Weather History Graph

Search for Another Location

Airport:

Trip Planner

Search our weather history database for the weather conditions in past years. The results will help you decide how hot, cold, wet, or windy it might be!

Date:

Astronomy

Mar. 01, 2013 Rise Set
Actual Time 6:33 AM MST 5:50 PM MST
Civil Twilight 6:05 AM MST 6:18 PM MST
Nautical Twilight 5:33 AM MST 6:50 PM MST
Astronomical Twilight 5:01 AM MST 7:22 PM MST
Moon 10:29 PM MST (3/1) 8:18 AM MST (3/1)
Length of Visible Light 12h 12m
Length of Day
11h 17m
Waning Gibbous, 83% of the Moon is Illuminated
Mar 1
Waning Gibbous
Mar 4
Last Quarter
Mar 11
New
Mar 19
First Quarter
Mar 27
Full

Hourly Weather History & Observations

Time (MST) Temp. Windchill Dew Point Humidity Pressure Visibility Wind Dir Wind Speed Gust Speed Precip Events Conditions
12:53 AM 25.0 °F 13.6 °F 14.0 °F 63% 30.31 in 10.0 mi NNW 12.7 mph 18.4 mph N/A   Clear
1:53 AM 25.0 °F 12.2 °F 12.9 °F 60% 30.30 in 10.0 mi NNW 16.1 mph 24.2 mph N/A   Clear
2:53 AM 25.0 °F 12.6 °F 14.0 °F 63% 30.30 in 10.0 mi NNW 15.0 mph 21.9 mph N/A   Clear
3:53 AM 24.8 °F 15.3 °F 12.2 °F 59% 30.22 in 10.0 mi NW 9.2 mph - N/A   Clear
4:53 AM 24.1 °F 16.0 °F 12.9 °F 62% 30.35 in 10.0 mi NW 6.9 mph - N/A   Scattered Clouds
5:53 AM 25.0 °F 14.8 °F 12.0 °F 58% 30.34 in 10.0 mi NNW 10.4 mph - N/A   Overcast
6:53 AM 27.0 °F 16.1 °F 12.0 °F 53% 30.33 in 10.0 mi NNW 12.7 mph 19.6 mph N/A   Overcast
7:53 AM 26.6 °F 16.8 °F 14.0 °F 59% 30.25 in 10.0 mi NNW 10.4 mph - N/A   Mostly Cloudy
8:53 AM 32.0 °F 22.5 °F 18.0 °F 56% 30.35 in 10.0 mi NNW 12.7 mph 26.5 mph N/A   Clear
9:53 AM 34.0 °F 21.8 °F 19.0 °F 54% 30.33 in 10.0 mi NW 23.0 mph 33.4 mph N/A   Clear
10:53 AM 37.4 °F 25.4 °F 21.2 °F 52% 30.24 in 10.0 mi NW 27.6 mph 35.7 mph N/A   Partly Cloudy
11:53 AM 39.0 °F 28.5 °F 21.0 °F 49% 30.32 in 10.0 mi NW 23.0 mph 35.7 mph N/A   Mostly Cloudy
12:53 PM 39.9 °F 29.7 °F 21.0 °F 47% 30.27 in 10.0 mi NW 23.0 mph 39.1 mph N/A   Clear
1:53 PM 42.1 °F 31.3 °F 19.9 °F 41% 30.23 in 10.0 mi NNW 29.9 mph 41.4 mph N/A   Mostly Cloudy
2:53 PM 43.0 °F 34.0 °F 21.9 °F 43% 30.25 in 10.0 mi NNW 21.9 mph 46.0 mph N/A   Mostly Cloudy
3:53 PM 42.1 °F 31.9 °F 21.9 °F 45% 30.26 in 10.0 mi NW 26.5 mph 40.3 mph N/A   Partly Cloudy
4:53 PM 41.0 °F 30.2 °F 24.1 °F 51% 30.30 in 10.0 mi NW 27.6 mph 38.0 mph N/A   Clear
5:53 PM 39.0 °F 30.6 °F 25.0 °F 57% 30.32 in 10.0 mi NW 15.0 mph 27.6 mph N/A   Overcast
6:53 PM 39.2 °F 30.2 °F 24.8 °F 56% 30.26 in 10.0 mi NW 17.3 mph 25.3 mph N/A   Mostly Cloudy
7:53 PM 39.0 °F 29.9 °F 25.0 °F 57% 30.33 in 10.0 mi NW 17.3 mph 24.2 mph N/A   Mostly Cloudy
8:53 PM 36.0 °F 27.1 °F 25.0 °F 64% 30.32 in 10.0 mi West 13.8 mph - N/A   Overcast
9:53 PM 36.0 °F 30.3 °F 24.1 °F 62% 30.31 in 10.0 mi WNW 6.9 mph - N/A   Overcast
10:53 PM 35.1 °F 26.9 °F 25.0 °F 67% 30.30 in 10.0 mi West 11.5 mph - N/A   Overcast
11:53 PM 36.0 °F 27.1 °F 24.1 °F 62% 30.27 in 10.0 mi West 13.8 mph - N/A   Overcast